Location: Doverdale
(52.2833°N, 2.2000°W)
Time: 12:09:31
(UTC+00:00)

Cosmos 1844 Rocket - Pass Details

Date: 29 October 2020
Orbit: 823 x 846 km, 71.0° (Epoch: 24 November)

Event Time Altitude Azimuth Distance (km) Brightness Sun altitude
Rises 20:07:24 0° 329° (NNW) 3,414 6.5 -31.2°
Reaches altitude 10° 20:09:55 10° 335° (NNW) 2,478 5.6 -31.6°
Enters shadow 20:13:17 34° 355° (N) 1,376 3.9 -32.1°
